Time,TemperatureF,DewpointF,PressureIn,WindDirection,WindDirectionDegrees,WindSpeedMPH,WindSpeedGustMPH,Humidity,HourlyPrecipIn,Conditions,Clouds,dailyrainin,SoftwareType,DateUTC
2013-02-02 00:00:00,46.4,36.0,30.45,NW,315,0.0,0.0,67,0.00,,,0.00,meteohub,2013-02-02 05:00:00,
2013-02-02 00:01:00,46.4,36.0,30.45,NW,315,0.0,0.0,67,0.00,,,0.00,meteohub,2013-02-02 05:01:00,
2013-02-02 00:02:00,46.4,36.0,30.45,NW,315,0.0,0.0,67,0.00,,,0.00,meteohub,2013-02-02 05:02:00,
2013-02-02 00:03:00,46.4,36.0,30.46,NW,315,0.0,0.0,67,0.00,,,0.00,meteohub,2013-02-02 05:03:00,
2013-02-02 00:08:00,46.4,36.0,30.46,NW,315,0.0,0.0,67,0.00,,,0.00,meteohub,2013-02-02 05:08:00,
2013-02-02 00:13:00,46.2,36.3,30.46,NW,315,0.0,0.0,68,0.00,,,0.00,meteohub,2013-02-02 05:13:00,
2013-02-02 00:19:00,45.9,36.0,30.46,NW,315,0.0,0.0,68,0.00,,,0.00,meteohub,2013-02-02 05:19:00,
2013-02-02 00:24:00,45.7,35.8,30.47,NW,315,0.0,0.0,68,0.00,,,0.00,meteohub,2013-02-02 05:24:00,
2013-02-02 00:29:00,45.7,36.1,30.47,NW,315,0.0,0.0,69,0.00,,,0.00,meteohub,2013-02-02 05:29:00,
2013-02-02 00:34:00,45.3,36.1,30.48,NW,315,0.0,0.0,70,0.00,,,0.00,meteohub,2013-02-02 05:34:00,
2013-02-02 00:39:00,45.3,36.5,30.48,NW,315,0.0,0.0,71,0.00,,,0.00,meteohub,2013-02-02 05:39:00,
2013-02-02 00:44:00,45.3,36.5,30.48,NW,315,0.0,0.0,71,0.00,,,0.00,meteohub,2013-02-02 05:44:00,
2013-02-02 00:49:00,45.0,36.1,30.48,NW,315,0.0,0.0,71,0.00,,,0.00,meteohub,2013-02-02 05:49:00,
2013-02-02 00:54:00,45.0,36.1,30.48,NW,315,0.0,0.0,71,0.00,,,0.00,meteohub,2013-02-02 05:54:00,
2013-02-02 00:59:00,45.0,36.1,30.49,NW,315,0.0,0.0,71,0.00,,,0.00,meteohub,2013-02-02 05:59:00,
2013-02-02 01:04:00,44.8,36.0,30.49,NW,315,0.0,0.0,71,0.00,,,0.00,meteohub,2013-02-02 06:04:00,
2013-02-02 01:09:00,44.8,36.0,30.49,NW,315,0.0,0.0,71,0.00,,,0.00,meteohub,2013-02-02 06:09:00,
2013-02-02 01:14:00,44.8,36.0,30.50,NW,315,0.0,0.0,71,0.00,,,0.00,meteohub,2013-02-02 06:14:00,
2013-02-02 01:19:00,44.6,35.8,30.50,NW,315,0.0,0.0,71,0.00,,,0.00,meteohub,2013-02-02 06:19:00,
2013-02-02 01:24:00,44.6,35.8,30.50,NW,315,0.0,0.0,71,0.00,,,0.00,meteohub,2013-02-02 06:24:00,
2013-02-02 01:29:00,44.4,36.0,30.50,NW,315,0.0,0.0,72,0.00,,,0.00,meteohub,2013-02-02 06:29:00,
2013-02-02 01:34:00,44.4,36.3,30.51,NW,315,0.0,0.0,73,0.00,,,0.00,meteohub,2013-02-02 06:34:00,
2013-02-02 01:39:00,44.4,36.3,30.50,NW,315,0.0,0.0,73,0.00,,,0.00,meteohub,2013-02-02 06:39:00,
2013-02-02 01:44:00,44.2,36.1,30.51,NW,315,0.0,0.0,73,0.00,,,0.00,meteohub,2013-02-02 06:44:00,
2013-02-02 01:49:00,44.2,36.1,30.51,NW,315,0.0,0.0,73,0.00,,,0.00,meteohub,2013-02-02 06:49:00,
2013-02-02 01:54:00,44.1,36.3,30.51,NW,315,0.0,0.0,74,0.00,,,0.00,meteohub,2013-02-02 06:54:00,
2013-02-02 01:59:00,43.9,36.1,30.51,NW,315,0.0,0.0,74,0.00,,,0.00,meteohub,2013-02-02 06:59:00,
2013-02-02 02:04:00,43.9,36.1,30.51,NW,315,0.0,0.0,74,0.00,,,0.00,meteohub,2013-02-02 07:04:00,
2013-02-02 02:09:00,43.7,36.0,30.51,NW,315,0.0,0.0,74,0.00,,,0.00,meteohub,2013-02-02 07:09:00,
2013-02-02 02:14:00,43.5,36.1,30.51,NW,315,0.0,0.0,75,0.00,,,0.00,meteohub,2013-02-02 07:14:00,
2013-02-02 02:20:00,43.5,36.1,30.52,NW,315,0.0,0.0,75,0.00,,,0.00,meteohub,2013-02-02 07:20:00,
2013-02-02 02:25:00,43.5,36.1,30.52,NW,315,0.0,0.0,75,0.00,,,0.00,meteohub,2013-02-02 07:25:00,
2013-02-02 02:30:00,43.5,36.5,30.52,NW,315,0.0,0.0,76,0.00,,,0.00,meteohub,2013-02-02 07:30:00,
2013-02-02 02:35:00,43.3,36.3,30.52,NW,315,0.0,0.0,76,0.00,,,0.00,meteohub,2013-02-02 07:35:00,
2013-02-02 02:40:00,43.2,36.1,30.52,North,0,0.0,0.0,76,0.00,,,0.00,meteohub,2013-02-02 07:40:00,
2013-02-02 02:45:00,43.2,36.5,30.52,NE,45,0.0,0.0,77,0.00,,,0.00,meteohub,2013-02-02 07:45:00,
2013-02-02 02:50:00,43.3,36.7,30.52,NW,315,0.0,0.0,77,0.00,,,0.00,meteohub,2013-02-02 07:50:00,
2013-02-02 02:55:00,43.5,36.9,30.52,NW,315,0.0,0.0,77,0.00,,,0.00,meteohub,2013-02-02 07:55:00,
2013-02-02 03:00:00,43.5,36.9,30.53,NW,315,0.0,0.0,77,0.00,,,0.00,meteohub,2013-02-02 08:00:00,
2013-02-02 03:06:00,43.5,36.5,30.53,NW,315,0.0,0.0,76,0.00,,,0.00,meteohub,2013-02-02 08:06:00,
2013-02-02 03:11:00,43.3,36.3,30.53,West,270,0.0,0.0,76,0.00,,,0.00,meteohub,2013-02-02 08:11:00,
2013-02-02 03:16:00,43.3,36.7,30.53,North,0,0.0,0.0,77,0.00,,,0.00,meteohub,2013-02-02 08:16:00,
2013-02-02 03:21:00,43.3,36.7,30.53,North,0,0.0,0.0,77,0.00,,,0.00,meteohub,2013-02-02 08:21:00,
2013-02-02 03:26:00,43.3,36.7,30.53,NW,315,0.0,0.0,77,0.00,,,0.00,meteohub,2013-02-02 08:26:00,
2013-02-02 03:31:00,43.3,36.7,30.54,NW,315,0.0,0.0,77,0.00,,,0.00,meteohub,2013-02-02 08:31:00,
2013-02-02 03:36:00,43.3,36.7,30.54,NW,315,0.0,0.0,77,0.00,,,0.00,meteohub,2013-02-02 08:36:00,
2013-02-02 03:41:00,43.2,36.5,30.55,NW,315,0.0,0.0,77,0.00,,,0.00,meteohub,2013-02-02 08:41:00,
2013-02-02 03:46:00,43.2,36.5,30.54,NW,315,0.0,0.0,77,0.00,,,0.00,meteohub,2013-02-02 08:46:00,
2013-02-02 03:51:00,43.0,36.0,30.55,NW,315,0.0,0.0,76,0.00,,,0.00,meteohub,2013-02-02 08:51:00,
2013-02-02 03:56:00,42.8,35.8,30.55,NW,315,0.0,0.0,76,0.00,,,0.00,meteohub,2013-02-02 08:56:00,
2013-02-02 04:02:00,42.6,36.0,30.55,NW,315,0.0,0.0,77,0.00,,,0.00,meteohub,2013-02-02 09:02:00,
2013-02-02 04:07:00,42.4,36.1,30.56,NW,315,0.0,0.0,78,0.00,,,0.00,meteohub,2013-02-02 09:07:00,
2013-02-02 04:12:00,42.4,36.1,30.56,NW,315,0.0,0.0,78,0.00,,,0.00,meteohub,2013-02-02 09:12:00,
2013-02-02 04:17:00,42.3,36.0,30.56,NW,315,0.0,0.0,78,0.00,,,0.00,meteohub,2013-02-02 09:17:00,
2013-02-02 04:22:00,42.3,36.0,30.56,NW,315,0.0,0.0,78,0.00,,,0.00,meteohub,2013-02-02 09:22:00,
2013-02-02 04:27:00,42.1,35.8,30.56,NW,315,0.0,0.0,78,0.00,,,0.00,meteohub,2013-02-02 09:27:00,
2013-02-02 04:32:00,41.9,35.6,30.56,NW,315,0.0,0.0,78,0.00,,,0.00,meteohub,2013-02-02 09:32:00,
2013-02-02 04:37:00,41.7,35.4,30.56,NW,315,0.0,0.0,78,0.00,,,0.00,meteohub,2013-02-02 09:37:00,
2013-02-02 04:42:00,41.7,35.8,30.56,NW,315,0.0,0.0,79,0.00,,,0.00,meteohub,2013-02-02 09:42:00,
2013-02-02 04:47:00,41.5,35.6,30.57,NW,315,0.0,0.0,79,0.00,,,0.00,meteohub,2013-02-02 09:47:00,
2013-02-02 04:52:00,41.4,35.4,30.57,NW,315,0.0,0.0,79,0.00,,,0.00,meteohub,2013-02-02 09:52:00,
2013-02-02 04:57:00,41.4,35.6,30.57,NW,315,0.0,0.0,80,0.00,,,0.00,meteohub,2013-02-02 09:57:00,
2013-02-02 05:02:00,41.2,35.4,30.58,NW,315,0.0,0.0,80,0.00,,,0.00,meteohub,2013-02-02 10:02:00,
2013-02-02 05:07:00,41.0,35.2,30.57,NW,315,0.0,0.0,80,0.00,,,0.00,meteohub,2013-02-02 10:07:00,
2013-02-02 05:12:00,41.0,35.6,30.58,NW,315,0.0,0.0,81,0.00,,,0.00,meteohub,2013-02-02 10:12:00,
2013-02-02 05:17:00,41.0,35.6,30.58,NW,315,0.0,0.0,81,0.00,,,0.00,meteohub,2013-02-02 10:17:00,
2013-02-02 05:22:00,41.0,36.0,30.58,NW,315,0.0,0.0,82,0.00,,,0.00,meteohub,2013-02-02 10:22:00,
2013-02-02 05:27:00,40.8,36.1,30.58,NW,315,0.0,0.0,83,0.00,,,0.00,meteohub,2013-02-02 10:27:00,
2013-02-02 05:32:00,40.8,36.1,30.58,NW,315,0.0,0.0,83,0.00,,,0.00,meteohub,2013-02-02 10:32:00,
2013-02-02 05:37:00,40.8,36.1,30.58,NW,315,0.0,0.0,83,0.00,,,0.00,meteohub,2013-02-02 10:37:00,
2013-02-02 05:42:00,40.8,36.1,30.59,NW,315,0.0,0.0,83,0.00,,,0.00,meteohub,2013-02-02 10:42:00,
2013-02-02 05:47:00,40.6,36.1,30.59,NW,315,0.0,0.0,84,0.00,,,0.00,meteohub,2013-02-02 10:47:00,
2013-02-02 05:52:00,40.6,36.1,30.59,NW,315,0.0,0.0,84,0.00,,,0.00,meteohub,2013-02-02 10:52:00,
2013-02-02 05:57:00,40.5,36.0,30.59,NW,315,0.0,0.0,84,0.00,,,0.00,meteohub,2013-02-02 10:57:00,
2013-02-02 06:02:00,40.5,36.0,30.59,NW,315,0.0,0.0,84,0.00,,,0.00,meteohub,2013-02-02 11:02:00,
2013-02-02 06:07:00,40.5,36.0,30.59,NW,315,0.0,0.0,84,0.00,,,0.00,meteohub,2013-02-02 11:07:00,
2013-02-02 06:12:00,40.5,36.0,30.58,NW,315,0.0,0.0,84,0.00,,,0.00,meteohub,2013-02-02 11:12:00,
2013-02-02 06:17:00,40.3,35.8,30.58,NW,315,0.0,0.0,84,0.00,,,0.00,meteohub,2013-02-02 11:17:00,
2013-02-02 06:22:00,40.3,35.8,30.58,NW,315,0.0,0.0,84,0.00,,,0.00,meteohub,2013-02-02 11:22:00,
2013-02-02 06:27:00,40.3,36.1,30.58,NW,315,0.0,0.0,85,0.00,,,0.00,meteohub,2013-02-02 11:27:00,
2013-02-02 06:32:00,40.1,36.0,30.58,NW,315,1.0,0.0,85,0.00,,,0.00,meteohub,2013-02-02 11:32:00,
2013-02-02 06:37:00,40.3,36.1,30.57,NW,315,1.0,1.0,85,0.00,,,0.00,meteohub,2013-02-02 11:37:00,
2013-02-02 06:42:00,40.3,36.1,30.58,NW,315,0.0,1.0,85,0.00,,,0.00,meteohub,2013-02-02 11:42:00,
2013-02-02 06:47:00,40.3,36.1,30.57,NW,315,0.0,1.0,85,0.00,,,0.00,meteohub,2013-02-02 11:47:00,
2013-02-02 06:52:00,40.5,36.3,30.57,NW,315,0.0,1.0,85,0.00,,,0.00,meteohub,2013-02-02 11:52:00,
2013-02-02 06:57:00,40.5,36.3,30.57,NW,315,0.0,0.0,85,0.00,,,0.00,meteohub,2013-02-02 11:57:00,
2013-02-02 07:02:00,40.6,36.5,30.56,North,0,1.0,0.0,85,0.00,,,0.00,meteohub,2013-02-02 12:02:00,
2013-02-02 07:07:00,40.8,36.7,30.57,NW,315,1.0,1.0,85,0.00,,,0.00,meteohub,2013-02-02 12:07:00,
2013-02-02 07:12:00,41.0,36.5,30.57,NE,45,1.0,1.0,84,0.00,,,0.00,meteohub,2013-02-02 12:12:00,
2013-02-02 07:17:00,41.2,36.7,30.57,NW,315,2.0,2.0,84,0.00,,,0.00,meteohub,2013-02-02 12:17:00,
2013-02-02 07:22:00,41.2,36.7,30.57,North,0,0.0,2.0,84,0.00,,,0.00,meteohub,2013-02-02 12:22:00,
2013-02-02 07:27:00,41.4,36.9,30.57,North,0,1.0,2.0,84,0.00,,,0.00,meteohub,2013-02-02 12:27:00,
2013-02-02 07:32:00,41.4,36.9,30.57,NW,315,0.0,2.0,84,0.00,,,0.00,meteohub,2013-02-02 12:32:00,
2013-02-02 07:37:00,41.5,37.0,30.57,North,0,0.0,2.0,84,0.00,,,0.00,meteohub,2013-02-02 12:37:00,
2013-02-02 07:42:00,41.7,37.2,30.57,NW,315,1.0,2.0,84,0.00,,,0.00,meteohub,2013-02-02 12:42:00,
2013-02-02 07:47:00,41.9,37.4,30.58,NW,315,2.0,2.0,84,0.00,,,0.00,meteohub,2013-02-02 12:47:00,
2013-02-02 07:52:00,42.1,37.6,30.58,NW,315,1.0,2.0,84,0.00,,,0.00,meteohub,2013-02-02 12:52:00,
2013-02-02 07:57:00,42.6,38.1,30.58,NW,315,2.0,2.0,84,0.00,,,0.00,meteohub,2013-02-02 12:57:00,
2013-02-02 08:02:00,43.2,38.3,30.59,SW,225,1.0,2.0,83,0.00,,,0.00,meteohub,2013-02-02 13:02:00,
2013-02-02 08:07:00,43.9,39.0,30.59,NW,315,2.0,2.0,83,0.00,,,0.00,meteohub,2013-02-02 13:07:00,
2013-02-02 08:12:00,44.4,39.6,30.60,NW,315,2.0,2.0,83,0.00,,,0.00,meteohub,2013-02-02 13:12:00,
2013-02-02 08:17:00,45.0,39.6,30.60,NW,315,3.0,3.0,81,0.00,,,0.00,meteohub,2013-02-02 13:17:00,
2013-02-02 08:22:00,45.5,40.1,30.61,North,0,2.0,3.0,81,0.00,,,0.00,meteohub,2013-02-02 13:22:00,
2013-02-02 08:27:00,46.0,40.5,30.62,North,0,3.0,3.0,81,0.00,,,0.00,meteohub,2013-02-02 13:27:00,
2013-02-02 08:32:00,46.8,40.6,30.62,North,0,2.0,3.0,79,0.00,,,0.00,meteohub,2013-02-02 13:32:00,
2013-02-02 08:37:00,47.3,40.8,30.62,SE,135,2.0,3.0,78,0.00,,,0.00,meteohub,2013-02-02 13:37:00,
2013-02-02 08:42:00,47.8,41.4,30.62,North,0,2.0,3.0,78,0.00,,,0.00,meteohub,2013-02-02 13:42:00,
2013-02-02 08:47:00,48.4,41.2,30.63,NE,45,2.0,3.0,76,0.00,,,0.00,meteohub,2013-02-02 13:47:00,
2013-02-02 08:52:00,48.7,41.5,30.63,NNE,23,3.0,3.0,76,0.00,,,0.00,meteohub,2013-02-02 13:52:00,
2013-02-02 08:57:00,49.3,41.7,30.63,NE,45,2.0,3.0,75,0.00,,,0.00,meteohub,2013-02-02 13:57:00,
2013-02-02 09:02:00,50.0,42.1,30.63,North,0,3.0,4.0,74,0.00,,,0.00,meteohub,2013-02-02 14:02:00,
2013-02-02 09:07:00,50.5,42.3,30.64,NE,45,2.0,4.0,73,0.00,,,0.00,meteohub,2013-02-02 14:07:00,
2013-02-02 09:12:00,51.3,43.0,30.63,NW,315,2.0,4.0,73,0.00,,,0.00,meteohub,2013-02-02 14:12:00,
2013-02-02 09:17:00,52.0,42.8,30.63,West,270,4.0,4.0,71,0.00,,,0.00,meteohub,2013-02-02 14:17:00,
2013-02-02 09:22:00,52.9,43.3,30.63,NW,315,3.0,4.0,70,0.00,,,0.00,meteohub,2013-02-02 14:22:00,
2013-02-02 09:27:00,53.4,43.2,30.63,NW,315,2.0,4.0,68,0.00,,,0.00,meteohub,2013-02-02 14:27:00,
2013-02-02 09:32:00,54.1,43.3,30.63,North,0,2.0,4.0,67,0.00,,,0.00,meteohub,2013-02-02 14:32:00,
2013-02-02 09:37:00,54.9,44.1,30.63,NNE,23,2.0,4.0,67,0.00,,,0.00,meteohub,2013-02-02 14:37:00,
2013-02-02 09:42:00,55.8,44.6,30.63,North,0,2.0,4.0,66,0.00,,,0.00,meteohub,2013-02-02 14:42:00,
2013-02-02 09:47:00,56.5,45.3,30.63,NE,45,2.0,3.0,66,0.00,,,0.00,meteohub,2013-02-02 14:47:00,
2013-02-02 09:52:00,57.6,45.5,30.63,NE,45,2.0,3.0,64,0.00,,,0.00,meteohub,2013-02-02 14:52:00,
2013-02-02 09:57:00,58.5,46.4,30.63,North,0,2.0,3.0,64,0.00,,,0.00,meteohub,2013-02-02 14:57:00,
2013-02-02 10:02:00,59.5,46.6,30.62,NE,45,2.0,3.0,62,0.00,,,0.00,meteohub,2013-02-02 15:02:00,
2013-02-02 10:07:00,59.7,45.9,30.62,ESE,113,2.0,2.0,60,0.00,,,0.00,meteohub,2013-02-02 15:07:00,
2013-02-02 10:12:00,60.3,46.8,30.62,North,0,3.0,3.0,61,0.00,,,0.00,meteohub,2013-02-02 15:12:00,
2013-02-02 10:17:00,60.8,45.9,30.62,West,270,2.0,3.0,58,0.00,,,0.00,meteohub,2013-02-02 15:17:00,
2013-02-02 10:23:00,61.3,46.4,30.61,North,0,2.0,4.0,58,0.00,,,0.00,meteohub,2013-02-02 15:23:00,
2013-02-02 10:28:00,61.7,46.4,30.61,East,90,3.0,4.0,57,0.00,,,0.00,meteohub,2013-02-02 15:28:00,
2013-02-02 10:33:00,62.4,47.5,30.61,North,0,2.0,4.0,58,0.00,,,0.00,meteohub,2013-02-02 15:33:00,
2013-02-02 10:38:00,63.5,47.5,30.61,West,270,2.0,4.0,56,0.00,,,0.00,meteohub,2013-02-02 15:38:00,
2013-02-02 10:43:00,64.0,47.1,30.60,NW,315,3.0,4.0,54,0.00,,,0.00,meteohub,2013-02-02 15:43:00,
2013-02-02 10:48:00,64.4,47.8,30.60,North,0,2.0,4.0,55,0.00,,,0.00,meteohub,2013-02-02 15:48:00,
2013-02-02 10:53:00,65.3,48.2,30.60,North,0,6.0,6.0,54,0.00,,,0.00,meteohub,2013-02-02 15:53:00,
2013-02-02 10:58:00,65.7,48.0,30.60,NE,45,2.0,6.0,53,0.00,,,0.00,meteohub,2013-02-02 15:58:00,
2013-02-02 11:03:00,66.4,48.2,30.59,SW,225,2.0,6.0,52,0.00,,,0.00,meteohub,2013-02-02 16:03:00,
2013-02-02 11:08:00,66.7,47.5,30.59,East,90,2.0,6.0,50,0.00,,,0.00,meteohub,2013-02-02 16:08:00,
2013-02-02 11:13:00,66.9,46.0,30.59,NE,45,2.0,3.0,47,0.00,,,0.00,meteohub,2013-02-02 16:13:00,
2013-02-02 11:18:00,67.3,46.4,30.59,North,0,2.0,4.0,47,0.00,,,0.00,meteohub,2013-02-02 16:18:00,
2013-02-02 11:23:00,67.8,46.2,30.58,NE,45,3.0,4.0,46,0.00,,,0.00,meteohub,2013-02-02 16:23:00,
2013-02-02 11:28:00,68.5,45.1,30.58,North,0,4.0,4.0,43,0.00,,,0.00,meteohub,2013-02-02 16:28:00,
2013-02-02 11:33:00,68.9,41.5,30.58,North,0,0.0,4.0,37,0.00,,,0.00,meteohub,2013-02-02 16:33:00,
2013-02-02 11:38:00,69.4,40.6,30.57,NE,45,2.0,4.0,35,0.00,,,0.00,meteohub,2013-02-02 16:38:00,
2013-02-02 11:43:00,69.4,39.9,30.57,NE,45,2.0,4.0,34,0.00,,,0.00,meteohub,2013-02-02 16:43:00,
2013-02-02 11:48:00,69.6,40.8,30.56,SE,135,4.0,4.0,35,0.00,,,0.00,meteohub,2013-02-02 16:48:00,
2013-02-02 11:53:00,69.3,39.7,30.56,SSE,158,4.0,4.0,34,0.00,,,0.00,meteohub,2013-02-02 16:53:00,
2013-02-02 11:58:00,69.1,40.3,30.55,SE,135,2.0,4.0,35,0.00,,,0.00,meteohub,2013-02-02 16:58:00,
2013-02-02 12:03:00,69.8,41.0,30.54,East,90,2.0,4.0,35,0.00,,,0.00,meteohub,2013-02-02 17:03:00,
2013-02-02 12:08:00,70.5,40.8,30.54,North,0,4.0,4.0,34,0.00,,,0.00,meteohub,2013-02-02 17:08:00,
2013-02-02 12:14:00,71.1,40.5,30.53,West,270,1.0,3.0,33,0.00,,,0.00,meteohub,2013-02-02 17:14:00,
2013-02-02 12:19:00,71.4,40.1,30.53,West,270,2.0,4.0,32,0.00,,,0.00,meteohub,2013-02-02 17:19:00,
2013-02-02 12:24:00,71.2,39.9,30.52,North,0,4.0,4.0,32,0.00,,,0.00,meteohub,2013-02-02 17:24:00,
2013-02-02 12:29:00,71.1,39.7,30.51,SE,135,1.0,4.0,32,0.00,,,0.00,meteohub,2013-02-02 17:29:00,
2013-02-02 12:34:00,71.4,40.1,30.51,SW,225,2.0,4.0,32,0.00,,,0.00,meteohub,2013-02-02 17:34:00,
2013-02-02 12:39:00,71.1,39.7,30.50,SE,135,0.0,4.0,32,0.00,,,0.00,meteohub,2013-02-02 17:39:00,
2013-02-02 12:44:00,71.4,40.8,30.49,NE,45,3.0,3.0,33,0.00,,,0.00,meteohub,2013-02-02 17:44:00,
2013-02-02 12:49:00,71.2,39.9,30.48,NE,45,4.0,4.0,32,0.00,,,0.00,meteohub,2013-02-02 17:49:00,
2013-02-02 12:54:00,71.6,39.4,30.48,North,0,2.0,4.0,31,0.00,,,0.00,meteohub,2013-02-02 17:54:00,
2013-02-02 12:59:00,72.5,40.1,30.48,NW,315,4.0,4.0,31,0.00,,,0.00,meteohub,2013-02-02 17:59:00,
2013-02-02 13:04:00,72.0,37.9,30.47,West,270,4.0,4.0,29,0.00,,,0.00,meteohub,2013-02-02 18:04:00,
2013-02-02 13:09:00,70.9,39.6,30.47,SW,225,4.0,6.0,32,0.00,,,0.00,meteohub,2013-02-02 18:09:00,
2013-02-02 13:14:00,70.9,39.6,30.46,East,90,2.0,6.0,32,0.00,,,0.00,meteohub,2013-02-02 18:14:00,
2013-02-02 13:19:00,71.2,39.9,30.45,SW,225,2.0,6.0,32,0.00,,,0.00,meteohub,2013-02-02 18:19:00,
2013-02-02 13:24:00,72.0,40.5,30.44,East,90,2.0,5.0,32,0.00,,,0.00,meteohub,2013-02-02 18:24:00,
2013-02-02 13:29:00,72.3,39.9,30.43,SE,135,6.0,6.0,31,0.00,,,0.00,meteohub,2013-02-02 18:29:00,
2013-02-02 13:35:00,72.0,38.8,30.42,West,270,2.0,6.0,30,0.00,,,0.00,meteohub,2013-02-02 18:35:00,
2013-02-02 13:40:00,72.0,39.7,30.41,West,270,3.0,6.0,31,0.00,,,0.00,meteohub,2013-02-02 18:40:00,
2013-02-02 13:45:00,72.1,39.9,30.41,West,270,3.0,6.0,31,0.00,,,0.00,meteohub,2013-02-02 18:45:00,
2013-02-02 13:50:00,72.1,39.9,30.40,East,90,3.0,4.0,31,0.00,,,0.00,meteohub,2013-02-02 18:50:00,
2013-02-02 13:55:00,72.3,39.2,30.39,SW,225,2.0,6.0,30,0.00,,,0.00,meteohub,2013-02-02 18:55:00,
2013-02-02 14:00:00,72.1,39.9,30.39,East,90,3.0,6.0,31,0.00,,,0.00,meteohub,2013-02-02 19:00:00,
2013-02-02 14:05:00,72.1,39.0,30.39,SW,225,4.0,6.0,30,0.00,,,0.00,meteohub,2013-02-02 19:05:00,
2013-02-02 14:10:00,72.5,39.4,30.38,North,0,6.0,9.0,30,0.00,,,0.00,meteohub,2013-02-02 19:10:00,
2013-02-02 14:15:00,72.7,38.7,30.37,SE,135,2.0,9.0,29,0.00,,,0.00,meteohub,2013-02-02 19:15:00,
2013-02-02 14:20:00,72.7,38.7,30.37,SW,225,8.0,9.0,29,0.00,,,0.00,meteohub,2013-02-02 19:20:00,
2013-02-02 14:25:00,72.3,36.5,30.37,SW,225,5.0,10.0,27,0.00,,,0.00,meteohub,2013-02-02 19:25:00,
2013-02-02 14:30:00,72.0,37.9,30.36,SE,135,4.0,10.0,29,0.00,,,0.00,meteohub,2013-02-02 19:30:00,
2013-02-02 14:35:00,72.5,37.6,30.35,SE,135,4.0,8.0,28,0.00,,,0.00,meteohub,2013-02-02 19:35:00,
2013-02-02 14:40:00,73.0,38.8,30.35,SW,225,4.0,8.0,29,0.00,,,0.00,meteohub,2013-02-02 19:40:00,
2013-02-02 14:45:00,73.2,37.2,30.35,SW,225,3.0,8.0,27,0.00,,,0.00,meteohub,2013-02-02 19:45:00,
2013-02-02 14:50:00,72.7,36.9,30.34,South,180,4.0,8.0,27,0.00,,,0.00,meteohub,2013-02-02 19:50:00,
2013-02-02 14:55:00,72.5,36.7,30.34,West,270,3.0,8.0,27,0.00,,,0.00,meteohub,2013-02-02 19:55:00,
2013-02-02 15:00:00,72.7,36.9,30.33,SW,225,5.0,8.0,27,0.00,,,0.00,meteohub,2013-02-02 20:00:00,
2013-02-02 15:05:00,72.0,36.1,30.33,East,90,3.0,6.0,27,0.00,,,0.00,meteohub,2013-02-02 20:05:00,
2013-02-02 15:10:00,71.1,38.8,30.33,SE,135,6.0,6.0,31,0.00,,,0.00,meteohub,2013-02-02 20:10:00,
2013-02-02 15:15:00,70.5,37.6,30.33,SE,135,5.0,8.0,30,0.00,,,0.00,meteohub,2013-02-02 20:15:00,
2013-02-02 15:21:00,70.3,37.4,30.32,North,0,3.0,8.0,30,0.00,,,0.00,meteohub,2013-02-02 20:21:00,
2013-02-02 15:26:00,70.3,38.3,30.32,South,180,4.0,8.0,31,0.00,,,0.00,meteohub,2013-02-02 20:26:00,
2013-02-02 15:31:00,70.5,36.7,30.31,SW,225,3.0,8.0,29,0.00,,,0.00,meteohub,2013-02-02 20:31:00,
2013-02-02 15:36:00,70.7,37.8,30.31,SW,225,4.0,6.0,30,0.00,,,0.00,meteohub,2013-02-02 20:36:00,
2013-02-02 15:41:00,70.9,37.9,30.31,West,270,4.0,6.0,30,0.00,,,0.00,meteohub,2013-02-02 20:41:00,
2013-02-02 15:46:00,70.5,35.8,30.31,NW,315,5.0,5.0,28,0.00,,,0.00,meteohub,2013-02-02 20:46:00,
2013-02-02 15:51:00,70.5,36.7,30.30,SW,225,2.0,5.0,29,0.00,,,0.00,meteohub,2013-02-02 20:51:00,
2013-02-02 15:56:00,70.7,38.7,30.30,SE,135,2.0,5.0,31,0.00,,,0.00,meteohub,2013-02-02 20:56:00,
2013-02-02 16:01:00,70.7,39.4,30.30,SW,225,4.0,5.0,32,0.00,,,0.00,meteohub,2013-02-02 21:01:00,
2013-02-02 16:06:00,70.5,39.2,30.29,SW,225,4.0,8.0,32,0.00,,,0.00,meteohub,2013-02-02 21:06:00,
2013-02-02 16:11:00,70.5,39.2,30.29,SW,225,2.0,8.0,32,0.00,,,0.00,meteohub,2013-02-02 21:11:00,
2013-02-02 16:16:00,70.5,39.2,30.28,NNE,23,3.0,8.0,32,0.00,,,0.00,meteohub,2013-02-02 21:16:00,
2013-02-02 16:21:00,70.7,40.1,30.28,SW,225,2.0,4.0,33,0.00,,,0.00,meteohub,2013-02-02 21:21:00,
2013-02-02 16:26:00,70.7,40.1,30.28,North,0,3.0,4.0,33,0.00,,,0.00,meteohub,2013-02-02 21:26:00,
2013-02-02 16:31:00,70.5,40.1,30.28,West,270,2.0,4.0,33,0.00,,,0.00,meteohub,2013-02-02 21:31:00,
2013-02-02 16:36:00,70.3,39.9,30.28,West,270,1.0,4.0,33,0.00,,,0.00,meteohub,2013-02-02 21:36:00,
2013-02-02 16:41:00,70.7,40.1,30.28,SW,225,4.0,4.0,33,0.00,,,0.00,meteohub,2013-02-02 21:41:00,
2013-02-02 16:46:00,70.7,41.0,30.28,West,270,2.0,4.0,34,0.00,,,0.00,meteohub,2013-02-02 21:46:00,
2013-02-02 16:51:00,70.3,40.6,30.27,West,270,2.0,4.0,34,0.00,,,0.00,meteohub,2013-02-02 21:51:00,
2013-02-02 16:56:00,70.2,39.7,30.27,SW,225,2.0,4.0,33,0.00,,,0.00,meteohub,2013-02-02 21:56:00,
2013-02-02 17:01:00,69.8,39.4,30.26,West,270,1.0,4.0,33,0.00,,,0.00,meteohub,2013-02-02 22:01:00,
2013-02-02 17:06:00,69.6,40.8,30.26,SW,225,2.0,4.0,35,0.00,,,0.00,meteohub,2013-02-02 22:06:00,
2013-02-02 17:11:00,69.6,39.9,30.25,South,180,2.0,2.0,34,0.00,,,0.00,meteohub,2013-02-02 22:11:00,
2013-02-02 17:17:00,69.8,40.1,30.25,SW,225,2.0,2.0,34,0.00,,,0.00,meteohub,2013-02-02 22:17:00,
2013-02-02 17:22:00,70.3,40.6,30.25,SW,225,1.0,3.0,34,0.00,,,0.00,meteohub,2013-02-02 22:22:00,
2013-02-02 17:27:00,70.3,40.6,30.23,East,90,0.0,3.0,34,0.00,,,0.00,meteohub,2013-02-02 22:27:00,
2013-02-02 17:32:00,70.0,41.0,30.23,North,0,0.0,3.0,35,0.00,,,0.00,meteohub,2013-02-02 22:32:00,
2013-02-02 17:37:00,69.6,41.5,30.22,West,270,1.0,2.0,36,0.00,,,0.00,meteohub,2013-02-02 22:37:00,
2013-02-02 17:42:00,68.7,42.1,30.22,West,270,0.0,2.0,38,0.00,,,0.00,meteohub,2013-02-02 22:42:00,
2013-02-02 17:47:00,68.0,42.1,30.21,West,270,0.0,2.0,39,0.00,,,0.00,meteohub,2013-02-02 22:47:00,
2013-02-02 17:52:00,67.1,43.2,30.21,West,270,0.0,1.0,42,0.00,,,0.00,meteohub,2013-02-02 22:52:00,
2013-02-02 17:57:00,66.0,44.1,30.22,West,270,0.0,0.0,45,0.00,,,0.00,meteohub,2013-02-02 22:57:00,
2013-02-02 18:02:00,65.1,43.3,30.22,West,270,0.0,0.0,45,0.00,,,0.00,meteohub,2013-02-02 23:02:00,
2013-02-02 18:07:00,64.2,43.0,30.21,West,270,0.0,0.0,46,0.00,,,0.00,meteohub,2013-02-02 23:07:00,
2013-02-02 18:12:00,63.3,42.8,30.21,West,270,0.0,1.0,47,0.00,,,0.00,meteohub,2013-02-02 23:12:00,
2013-02-02 18:17:00,62.6,43.2,30.21,West,270,0.0,1.0,49,0.00,,,0.00,meteohub,2013-02-02 23:17:00,
2013-02-02 18:22:00,62.1,43.7,30.21,West,270,0.0,1.0,51,0.00,,,0.00,meteohub,2013-02-02 23:22:00,
2013-02-02 18:27:00,61.3,43.5,30.21,West,270,0.0,0.0,52,0.00,,,0.00,meteohub,2013-02-02 23:27:00,
2013-02-02 18:32:00,60.6,43.3,30.21,West,270,0.0,0.0,53,0.00,,,0.00,meteohub,2013-02-02 23:32:00,
2013-02-02 18:37:00,60.1,43.0,30.21,West,270,0.0,0.0,53,0.00,,,0.00,meteohub,2013-02-02 23:37:00,
2013-02-02 18:42:00,59.5,42.8,30.21,West,270,0.0,0.0,54,0.00,,,0.00,meteohub,2013-02-02 23:42:00,
2013-02-02 18:47:00,59.0,42.8,30.20,West,270,0.0,0.0,55,0.00,,,0.00,meteohub,2013-02-02 23:47:00,
2013-02-02 18:52:00,58.5,43.3,30.21,West,270,0.0,0.0,57,0.00,,,0.00,meteohub,2013-02-02 23:52:00,
2013-02-02 18:58:00,57.9,43.7,30.21,West,270,0.0,1.0,59,0.00,,,0.00,meteohub,2013-02-02 23:58:00,
2013-02-02 19:03:00,57.6,43.7,30.21,West,270,0.0,1.0,60,0.00,,,0.00,meteohub,2013-02-03 00:03:00,
2013-02-02 19:08:00,57.2,43.9,30.22,West,270,0.0,1.0,61,0.00,,,0.00,meteohub,2013-02-03 00:08:00,
2013-02-02 19:13:00,56.8,44.4,30.21,West,270,0.0,0.0,63,0.00,,,0.00,meteohub,2013-02-03 00:13:00,
2013-02-02 19:18:00,56.5,44.4,30.22,West,270,0.0,0.0,64,0.00,,,0.00,meteohub,2013-02-03 00:18:00,
2013-02-02 19:23:00,56.1,44.6,30.22,West,270,0.0,0.0,65,0.00,,,0.00,meteohub,2013-02-03 00:23:00,
2013-02-02 19:28:00,55.8,44.2,30.22,West,270,0.0,0.0,65,0.00,,,0.00,meteohub,2013-02-03 00:28:00,
2013-02-02 19:33:00,55.2,43.7,30.21,West,270,0.0,0.0,65,0.00,,,0.00,meteohub,2013-02-03 00:33:00,
2013-02-02 19:38:00,54.9,43.7,30.22,West,270,0.0,0.0,66,0.00,,,0.00,meteohub,2013-02-03 00:38:00,
2013-02-02 19:43:00,54.5,43.7,30.22,West,270,0.0,0.0,67,0.00,,,0.00,meteohub,2013-02-03 00:43:00,
2013-02-02 19:48:00,54.3,44.1,30.22,West,270,0.0,0.0,68,0.00,,,0.00,meteohub,2013-02-03 00:48:00,
2013-02-02 19:53:00,54.0,44.4,30.22,West,270,0.0,0.0,70,0.00,,,0.00,meteohub,2013-02-03 00:53:00,
2013-02-02 19:58:00,53.8,44.6,30.22,West,270,0.0,0.0,71,0.00,,,0.00,meteohub,2013-02-03 00:58:00,
2013-02-02 20:03:00,53.6,44.8,30.22,West,270,0.0,0.0,72,0.00,,,0.00,meteohub,2013-02-03 01:03:00,
2013-02-02 20:08:00,53.4,45.0,30.22,West,270,0.0,0.0,73,0.00,,,0.00,meteohub,2013-02-03 01:08:00,
2013-02-02 20:13:00,53.2,44.8,30.22,West,270,0.0,0.0,73,0.00,,,0.00,meteohub,2013-02-03 01:13:00,
2013-02-02 20:18:00,52.9,44.8,30.22,West,270,0.0,0.0,74,0.00,,,0.00,meteohub,2013-02-03 01:18:00,
2013-02-02 20:23:00,52.7,45.0,30.22,West,270,0.0,0.0,75,0.00,,,0.00,meteohub,2013-02-03 01:23:00,
2013-02-02 20:28:00,52.7,45.3,30.23,SW,225,1.0,0.0,76,0.00,,,0.00,meteohub,2013-02-03 01:28:00,
2013-02-02 20:33:00,52.7,45.0,30.22,SE,135,0.0,4.0,75,0.00,,,0.00,meteohub,2013-02-03 01:33:00,
2013-02-02 20:38:00,52.7,45.0,30.23,NW,315,2.0,4.0,75,0.00,,,0.00,meteohub,2013-02-03 01:38:00,
2013-02-02 20:43:00,52.9,44.8,30.23,NE,45,0.0,4.0,74,0.00,,,0.00,meteohub,2013-02-03 01:43:00,
2013-02-02 20:49:00,53.1,45.0,30.24,North,0,1.0,2.0,74,0.00,,,0.00,meteohub,2013-02-03 01:49:00,
2013-02-02 20:54:00,53.1,44.6,30.25,North,0,0.0,2.0,73,0.00,,,0.00,meteohub,2013-02-03 01:54:00,
2013-02-02 20:59:00,53.1,44.6,30.25,North,0,0.0,2.0,73,0.00,,,0.00,meteohub,2013-02-03 01:59:00,
2013-02-02 21:04:00,53.1,45.0,30.25,North,0,0.0,1.0,74,0.00,,,0.00,meteohub,2013-02-03 02:04:00,
2013-02-02 21:09:00,52.7,44.6,30.25,North,0,0.0,1.0,74,0.00,,,0.00,meteohub,2013-02-03 02:09:00,
2013-02-02 21:14:00,52.5,44.8,30.26,North,0,0.0,0.0,75,0.00,,,0.00,meteohub,2013-02-03 02:14:00,
2013-02-02 21:19:00,52.2,44.4,30.26,SE,135,0.0,0.0,75,0.00,,,0.00,meteohub,2013-02-03 02:19:00,
2013-02-02 21:24:00,52.0,44.2,30.26,NW,315,0.0,0.0,75,0.00,,,0.00,meteohub,2013-02-03 02:24:00,
2013-02-02 21:29:00,51.6,44.2,30.27,NW,315,0.0,2.0,76,0.00,,,0.00,meteohub,2013-02-03 02:29:00,
2013-02-02 21:34:00,51.3,44.2,30.27,NW,315,0.0,2.0,77,0.00,,,0.00,meteohub,2013-02-03 02:34:00,
2013-02-02 21:39:00,51.1,44.1,30.27,NW,315,0.0,2.0,77,0.00,,,0.00,meteohub,2013-02-03 02:39:00,
2013-02-02 21:44:00,50.7,44.1,30.27,NW,315,0.0,0.0,78,0.00,,,0.00,meteohub,2013-02-03 02:44:00,
2013-02-02 21:49:00,50.5,44.2,30.27,NW,315,0.0,0.0,79,0.00,,,0.00,meteohub,2013-02-03 02:49:00,
2013-02-02 21:54:00,50.4,44.4,30.27,NW,315,0.0,0.0,80,0.00,,,0.00,meteohub,2013-02-03 02:54:00,
2013-02-02 21:59:00,50.2,44.2,30.27,NW,315,0.0,0.0,80,0.00,,,0.00,meteohub,2013-02-03 02:59:00,
2013-02-02 22:04:00,50.0,44.4,30.28,NW,315,0.0,1.0,81,0.00,,,0.00,meteohub,2013-02-03 03:04:00,
2013-02-02 22:09:00,49.6,44.4,30.28,NW,315,0.0,1.0,82,0.00,,,0.00,meteohub,2013-02-03 03:09:00,
2013-02-02 22:14:00,49.5,44.2,30.28,NW,315,0.0,1.0,82,0.00,,,0.00,meteohub,2013-02-03 03:14:00,
2013-02-02 22:19:00,49.3,44.4,30.29,NW,315,0.0,0.0,83,0.00,,,0.00,meteohub,2013-02-03 03:19:00,
2013-02-02 22:24:00,49.1,44.2,30.29,NW,315,0.0,0.0,83,0.00,,,0.00,meteohub,2013-02-03 03:24:00,
2013-02-02 22:29:00,48.9,44.2,30.29,NW,315,0.0,0.0,84,0.00,,,0.00,meteohub,2013-02-03 03:29:00,
2013-02-02 22:35:00,48.7,44.1,30.29,NW,315,0.0,0.0,84,0.00,,,0.00,meteohub,2013-02-03 03:35:00,
2013-02-02 22:40:00,48.6,43.9,30.30,West,270,0.0,0.0,84,0.00,,,0.00,meteohub,2013-02-03 03:40:00,
2013-02-02 22:45:00,48.6,44.2,30.30,West,270,0.0,0.0,85,0.00,,,0.00,meteohub,2013-02-03 03:45:00,
2013-02-02 22:50:00,48.4,44.1,30.30,West,270,0.0,0.0,85,0.00,,,0.00,meteohub,2013-02-03 03:50:00,
2013-02-02 22:55:00,48.4,44.1,30.31,NW,315,0.0,0.0,85,0.00,,,0.00,meteohub,2013-02-03 03:55:00,
2013-02-02 23:00:00,48.2,43.9,30.31,NW,315,0.0,0.0,85,0.00,,,0.00,meteohub,2013-02-03 04:00:00,
2013-02-02 23:05:00,48.2,44.2,30.31,North,0,0.0,0.0,86,0.00,,,0.00,meteohub,2013-02-03 04:05:00,
2013-02-02 23:10:00,48.0,44.4,30.31,North,0,0.0,0.0,87,0.00,,,0.00,meteohub,2013-02-03 04:10:00,
2013-02-02 23:15:00,47.8,44.2,30.31,North,0,0.0,0.0,87,0.00,,,0.00,meteohub,2013-02-03 04:15:00,
2013-02-02 23:20:00,47.8,44.2,30.32,North,0,0.0,0.0,87,0.00,,,0.00,meteohub,2013-02-03 04:20:00,
2013-02-02 23:25:00,47.7,44.1,30.32,North,0,0.0,0.0,87,0.00,,,0.00,meteohub,2013-02-03 04:25:00,
2013-02-02 23:30:00,47.5,43.9,30.32,North,0,0.0,0.0,87,0.00,,,0.00,meteohub,2013-02-03 04:30:00,
2013-02-02 23:35:00,47.5,44.1,30.32,North,0,0.0,0.0,88,0.00,,,0.00,meteohub,2013-02-03 04:35:00,
2013-02-02 23:40:00,47.3,43.9,30.32,North,0,0.0,0.0,88,0.00,,,0.00,meteohub,2013-02-03 04:40:00,
2013-02-02 23:45:00,47.3,43.9,30.33,North,0,0.0,0.0,88,0.00,,,0.00,meteohub,2013-02-03 04:45:00,
2013-02-02 23:50:00,47.1,43.7,30.33,North,0,0.0,0.0,88,0.00,,,0.00,meteohub,2013-02-03 04:50:00,
2013-02-02 23:55:00,47.1,43.7,30.33,North,0,0.0,0.0,88,0.00,,,0.00,meteohub,2013-02-03 04:55:00,